Location: Newark
(42.9500°N, 17.1167°E)
Time: 15:00:00
(UTC+00:00)

X-37B - Visible Passes

Search period start: 18 September 2020 00:00
Search period end: 28 September 2020 00:00
Orbit: 386 x 387 km, 45.0° (Epoch: 15 September)

Date Brightness Start Highest point End Pass type
(mag) Time Alt. Az. Time Alt. Az. Time Alt. Az.
18 Sep 3.8 01:52:47 14° ENE 01:52:47 14° ENE 01:53:20 10° ENE visible
18 Sep 1.0 03:25:04 22° WNW 03:26:54 56° N 03:30:03 10° E visible
19 Sep 2.0 02:29:10 39° NE 02:29:10 39° NE 02:31:25 10° ENE visible
19 Sep 0.7 04:01:51 10° WNW 04:05:03 78° NNE 04:08:14 10° E visible
20 Sep 0.9 03:05:36 42° NW 03:06:26 62° N 03:09:36 10° E visible
21 Sep 3.3 02:09:48 20° ENE 02:09:48 20° ENE 02:10:56 10° E visible
21 Sep 0.5 03:42:05 16° WNW 03:44:31 74° SSW 03:47:41 10° ESE visible
22 Sep 1.0 02:46:23 62° E 02:46:23 62° E 02:49:07 10° E visible
23 Sep 1.0 03:23:04 35° WSW 03:23:56 45° SSW 03:26:59 10° SE visible
24 Sep 3.1 02:27:36 18° ESE 02:27:36 18° ESE 02:28:35 10° ESE visible
24 Sep 2.5 03:59:54 11° WSW 04:01:40 16° SW 04:03:43 10° S visible
25 Sep 2.5 03:04:35 20° S 03:04:35 20° S 03:06:02 10° SSE visible
